Location: Arrodets-la-Barthe
(43.0306°N, 0.2829°E)
Time: 06:11:57
(UTC+00:00)

NOSS 3-1 (C) - Visible Passes

Search period start: 21 May 2022 00:00
Search period end: 31 May 2022 00:00
Orbit: 706 x 1502 km, 63.4° (Epoch: 18 May)

Date Brightness Start Highest point End Pass type
(mag) Time Alt. Az. Time Alt. Az. Time Alt. Az.
21 May 4.2 01:43:30 10° NW 01:51:00 55° WSW 01:56:31 23° S visible
21 May 5.8 03:39:03 10° W 03:40:50 11° WSW 03:42:39 10° WSW visible
21 May 6.2 21:17:08 10° NNW 21:20:44 15° NNE 21:24:38 10° NE visible
21 May 5.4 23:07:34 10° NNW 23:14:00 33° NE 23:21:28 10° E visible
22 May 4.0 00:57:59 10° NW 01:05:38 79° WSW 01:10:49 28° SSE visible
22 May 5.4 02:50:38 10° WNW 02:55:54 19° WSW 02:58:05 17° SW visible
22 May 6.2 20:31:28 10° NNW 20:34:25 13° N 20:37:35 10° NNE visible
22 May 5.7 22:22:21 10° NNW 22:28:05 25° NNE 22:34:37 10° E visible
23 May 4.2 00:12:37 10° NNW 00:20:10 75° NE 00:25:34 26° SE visible
23 May 4.9 02:04:11 10° NW 02:10:49 30° WSW 02:12:53 27° SW visible
23 May 5.9 21:37:08 10° NNW 21:42:02 20° NNE 21:47:32 10° ENE visible
23 May 4.6 23:27:21 10° NNW 23:34:35 54° NE 23:40:36 20° ESE visible
24 May 4.5 01:18:18 10° NW 01:25:37 45° WSW 01:27:56 37° SSW visible
24 May 6.1 20:51:49 10° NNW 20:55:51 16° NNE 21:00:17 10° NE visible
24 May 5.1 22:42:07 10° NNW 22:48:53 39° NE 22:55:50 13° ESE visible
25 May 4.1 00:32:42 10° NW 00:40:18 65° WSW 00:43:10 44° S visible
25 May 5.7 02:26:22 10° WNW 02:30:20 14° WSW 02:30:31 14° WSW visible
25 May 6.1 20:06:20 10° NNW 20:09:35 14° N 20:13:06 10° NE visible
25 May 5.5 21:56:55 10° NNW 22:03:03 29° NE 22:10:05 10° E visible
25 May 4.1 23:47:15 10° NW 23:54:53 89° NE 23:58:34 40° SE visible
26 May 5.2 01:39:19 10° WNW 01:45:19 24° WSW 01:45:54 23° WSW visible
26 May 5.7 21:11:42 10° NNW 21:17:04 22° NNE 21:23:08 10° ENE visible
26 May 4.3 23:01:56 10° NNW 23:09:22 64° NE 23:14:03 29° ESE visible
27 May 4.8 00:53:11 10° NW 01:00:11 36° WSW 01:01:24 34° SW visible
27 May 5.9 20:26:27 10° NNW 20:30:57 18° NNE 20:35:56 10° ENE visible
27 May 4.8 22:16:41 10° NNW 22:23:44 46° NE 22:29:38 19° ESE visible
28 May 4.3 00:07:26 10° NW 00:14:56 53° WSW 00:17:00 45° SSW visible
28 May 6.0 02:03:48 10° W 02:04:21 10° W 02:04:21 10° W visible
28 May 5.2 21:31:28 10° NNW 21:37:58 34° NE 21:45:18 11° E visible
28 May 4.1 23:21:56 10° NW 23:29:33 77° WSW 23:32:40 44° SSE visible
29 May 5.6 01:14:40 10° WNW 01:19:47 18° WSW 01:20:02 18° WSW visible
29 May 5.5 20:46:16 10° NNW 20:52:04 26° NNE 20:58:40 10° E visible
29 May 4.2 22:36:33 10° NW 22:44:06 77° NE 22:48:24 34° SE visible
30 May 5.1 00:28:10 10° WNW 00:34:43 29° WSW 00:35:46 28° WSW visible
30 May 5.8 20:01:03 10° NNW 20:06:01 20° NNE 20:11:35 10° ENE visible
30 May 4.5 21:51:16 10° NNW 21:58:32 55° NE 22:04:12 22° ESE visible
30 May 4.7 23:42:16 10° NW 23:49:32 43° WSW 23:51:34 38° SSW visible
